THORAD DELTA 1 DEB, 42601

Orbit data source: Space-Track

THORAD DELTA 1 DEB, 42601 is space debris in SSO originally from a launch on Fri, 15 Nov 1974 UTC launched from the Air Force Western Test Range (AFWTR). Debris objects in space refer to the collection of defunct objects orbiting the Earth. Examples of debris include non-operational satellites, rocket bodies, and fragments generated from explosions, collisions, or faulty payload assembly.

Loading next visibility...
Identifier
42601, 1974-089FS
Orbit
SSO
Country
Flag of USUS
Related business
Manufacturer
Unknown
Mission
Spacecraft
Bus & Motor
Unknown
Mass
Unknown
Launch date (UTC)
1974-11-15 (51 years ago)
Launch vehicle
Unknown
Launch site
Air Force Western Test Range (AFWTR)
Object type
Payload
Rocket body
Debris
Shape & HBR
Unknown shape, 0.1 m
Radar Cross Section
Small (<0.1 m²)

Expand to show TLE details & history
Last TLE update: 4 days ago

TLE from 4 days ago
0 THORAD DELTA 1 DEB
1 42601U 74089FS  26122.67172366 -.00000421  00000-0 -90955-3 0  9992
2 42601 101.4814  93.2491 0314825  27.9928 151.4032 13.04762241983301
Epoch: 2026-05-02T16:07Z
TLE epoch observation values (Epoch: 2026-05-02T16:07:16.924Z)
Latitude
-1.15621°
Longitude
170.60858°
Altitude
1,458.683 km
Speed
7.033 km/s
True Right ascension
18h 12m 03s
True Declination
-1° 08' 60"
Sunlit
Object was in partial shadow at epoch
Visualization orbit readout
Latitude
Unknown
Longitude
Unknown
Altitude
Unknown
Speed
Unknown
Apparent Right ascension
Unknown
Apparent Declination
Unknown
Sunlit
N/A
Visualization observer readout
Local Sidereal Time
03:02:33
Azimuth
Unknown
Elevation
Unknown
Doppler factor
Unknown
Orbital elements
Apogee altitude
1,480.812 km
Perigee altitude
1,001.076 km
Semi-major axis
7,619.081 km
Eccentricity
0.03148
Inclination
101.4814°
RAAN
93.2491°
Arg. of periapsis
27.9928°
True anomaly
153.07199°
Mean anomaly
151.4032°
Eccentric anomaly
152.24327°
Mean motion
3.26354 °/min
Orbital period
110.31 mins
BSTAR
-0.00090955
Loading maneuver chart data...
Computing Atmospheric mass density...

Documentation

Showing up to 5 results
|